Tracking 20945 objects as of 8-Jul-2020
HD Live streaming from Space Station
objects crossing your sky now

COSMOS 2494 (SKRL 756)

Track COSMOS 2494 (SKRL 756) now!
10-day predictions
COSMOS 2494 (SKRL 756) is classified as:


NORAD ID: 39491
Int'l Code: 2013-078B
Perigee: 590.8 km
Apogee: 619.3 km
Inclination: 82.4 °
Period: 96.6 minutes
Semi major axis: 6976 km
RCS: Unknown
Launch date: December 28, 2013
Source: Commonwealth of Independent States (former USSR) (CIS)
Launch site: PLESETSK MISSILE AND SPACE COMPLEX (PKMTR)
aabbcc
Your satellite tracking list
Your tracking list is empty




NASA's NSSDC Master Catalog

Two Line Element Set (TLE):
1 39491U 13078B   20189.91545218 +.00000177 +00000-0 +15764-4 0  9992
2 39491 082.4177 188.8475 0020420 271.8539 088.0340 14.89999447354594
Source of the keplerian elements: AFSPC